Regional Weather Roundup
Issued by NWS

Home | Current Version | Previous Version | Graphics & Text | Print | Product List | Glossary On
Versions: 1 2 3 4 5 6 7 8 9 10 11 12 13 14 15 16 17 18 19 20 21 22 23 24 25 26 27 28 29 30 31 32 33 34 35 36 37 38 39 40 41 42 43 44 45 46 47 48 49 50
000
ASUS43 KLOT 251709
RWRIL

ILLINOIS REGIONAL WEATHER ROUNDUP
NATIONAL WEATHER SERVICE CHICAGO/ROMEOVILLE IL
1200 PM CDT THU MAY 25 2017

NOTE: "FAIR" INDICATES FEW OR NO CLOUDS BELOW 12,000 FEET WITH NO
SIGNIFICANT WEATHER AND/OR OBSTRUCTIONS TO VISIBILITY.

* THESE STATIONS ARE NOT UNDER NWS QUALITY CONTROL. THEY ALSO MAY NOT
  REPORT WEATHER SUCH AS PRECIPITATION OR FOG.

ILZ001-002-007-009-015-016-024-251800-
NORTHWEST ILLINOIS

CITY           SKY/WX    TMP DP  RH WIND       PRES   REMARKS
MOLINE         MOSUNNY   66  53  63 NW7       29.69S
STERLING*      CLOUDY    59  53  80 NW7       29.71R
SAVANNA*       CLOUDY    59  53  79 N5        29.70S
$$

ILZ003-004-008-010-011-017-018-251800-
NORTH CENTRAL ILLINOIS

CITY           SKY/WX    TMP DP  RH WIND       PRES   REMARKS
ROCKFORD       CLOUDY    61  53  75 N9        29.69R
FREEPORT*      CLOUDY    59  53  79 N8        29.71R
ROCHELLE*      CLOUDY    59  53  82 N13       29.69R
DE KALB*       CLOUDY    60  55  83 N10G16    29.67S
PERU*          CLOUDY    58  52  82 NW10      29.70R
$$

ILZ005-006-012>014-019>023-251800-
NORTHEAST ILLINOIS

CITY           SKY/WX    TMP DP  RH WIND       PRES   REMARKS
CHICAGO-OHARE  CLOUDY    63  52  67 N12       29.62S
CHICAGO-MIDWAY CLOUDY    62  53  72 NW14      29.62S
AURORA         CLOUDY    61  55  81 NW14      29.66R
LANSING*       CLOUDY    58  55  88 N10       29.63S
JOLIET*        CLOUDY    63  55  77 NW8       29.65R
WAUKEGAN       MOSUNNY   65  55  70 N9G20     29.62S
DUPAGE AIRPORT CLOUDY    63  55  75 NW12      29.64R
KANKAKEE*      CLOUDY    62  54  73 N9        29.64R
WHEELING       CLOUDY    63  55  75 N13       29.63F
MORRIS*        CLOUDY    59  53  80 NW6       29.65S
ROMEOVILLE*    CLOUDY    60  57  87 N10       29.64S
NORTHERLY ISL    N/A     57  51  80 MISG        N/A
$$

LMZ740>746-251800-
SOUTHERN LAKE MICHIGAN

STATION/POSITION SKY/WX   TEMP    WIND        PRES    VSBY  WAVE
                          AIR SEA DIR/SP/G                  HT/PER
                          (F)     (DEG/KT/KT) (MB)    (MI)  (FT/S)
SOUTHERN BUOY              46 45  350/ 12/ 14 1002.4          3/ 5
WILMETTE HARBOR            51 51                N/A           4/ 5
HARRISON CRIB              53     340/ 17/ 18   N/A
BURNHAM HARBOR             58     340/ 10/ 17   N/A
CALUMET HARBOR             55     340/ 10/ 15 1003.2R
BURNS HARBOR               49     330/ 13/ 17 1003.7R
MICHIGAN CITY              49     320/ 15/ 16   N/A
MICHIGAN CITY 6N           48 51  320/ 14/ 17   N/A           5/ 5
ST. JOSEPH                 53 56   10/ 14/ 17 1002.2          5/ 5
$$

ILZ025>027-034>036-040-047-049-050-058-095>099-251800-
WEST-CENTRAL ILLINOIS

CITY           SKY/WX    TMP DP  RH WIND       PRES   REMARKS
QUINCY         MOSUNNY   65  52  62 NW9       29.72S
GALESBURG*     SUNNY     65  54  65 NW8       29.69S
MACOMB*        PTSUNNY   64  55  71 NW9       29.73R
JACKSONVILLE*  MOSUNNY   65  53  66 N7        29.70S
PITTSFIELD*    MOSUNNY   66  53  63 W8        29.73R
$$

ILZ028>032-037-038-041>044-048-051>054-059>061-251800-
CENTRAL ILLINOIS

CITY           SKY/WX    TMP DP  RH WIND       PRES   REMARKS
PONTIAC        CLOUDY    60  56  88 NW14      29.68R
BLOOMINGTON    CLOUDY    59  54  83 NW14      29.70R
DECATUR        CLOUDY    62  55  77 NW13      29.69R
PEORIA         PTSUNNY   63  54  72 NW9       29.70R
LACON*         CLOUDY    58  54  88 N9        29.70R
LINCOLN*       CLOUDY    63  56  78 NW6       29.70R
SPRINGFIELD    MOSUNNY   67  57  70 NW10      29.70R
TAYLORVILLE    MOSUNNY   65  56  71 NW10      29.70S
$$

ILZ033-039-045-046-055>057-062-063-251800-
EAST-CENTRAL ILLINOIS

CITY           SKY/WX    TMP DP  RH WIND       PRES   REMARKS
CHAMPAIGN      CLOUDY    61  54  77 NW14      29.67R
RANTOUL*       CLOUDY    62  56  83 NW9G18    29.67R
MATTOON        CLOUDY    60  56  86 NW13      29.68R
PARIS*         CLOUDY    60  56  86 NW15      29.66S
$$

ILZ079-100>102-251800-
SOUTHWEST ILLINOIS

CITY           SKY/WX    TMP DP  RH WIND       PRES   REMARKS
ALTON          MOSUNNY   66  54  63 NW12      29.72S
CAHOKIA*       MOSUNNY   70  50  49 SW6       29.72S
SPARTA*        MOSUNNY   68  54  60 W8        29.74R
$$

ILZ064>066-069>071-074>076-080>082-084>086-088>090-092>094-251800-
SOUTH-CENTRAL ILLINOIS

CITY           SKY/WX    TMP DP  RH WIND       PRES   REMARKS
CARBONDALE     MOSUNNY   70  53  54 W12G20    29.73S
CAIRO*         SUNNY     69  52  53 W9        29.75S
EFFINGHAM*     PTSUNNY   66  59  76 NW10      29.70R
MARION         PTSUNNY   70  54  56 W14       29.74R
MT. VERNON       N/A     68  55  63 W12       29.71R
CENTRALIA*     MOSUNNY   67  55  64 W13G20    29.70S
SALEM*         PTSUNNY   68  54  60 W17       29.70S
METROPOLIS*    MOSUNNY   71  53  53 W12       29.75S
$$

ILZ067-068-072-073-078-083-087-091-251800-
SOUTHEAST ILLINOIS

CITY           SKY/WX    TMP DP  RH WIND       PRES   REMARKS
LAWRENCEVILLE  CLOUDY    64  57  78 W15       29.67R
FLORA*         CLOUDY    68  57  68 NW13      29.69S
FAIRFIELD*     PTSUNNY   67  55  65 W7        29.69R
HARRISBURG*    MOSUNNY   69  55  60 W14       29.72R
ROBINSON*      CLOUDY    60  55  83 NW13G20   29.68R
CARMI*         MOSUNNY   67  56  67 W14G22    29.69R
$$

ABBREVIATIONS USED IN REMARKS
   TC - TEMPERATURE IN CELSIUS
  WCI - WIND CHILL INDEX
   HX - HEAT INDEX
  VSB - VISIBILITY
$$





USA.gov is the U.S. government's official web portal to all federal, state and local government web resources and services.